Weather History for Glenwood, MN

Change the Weather History Date:

Tuesday, October 2, 2012

  Actual Average Record
Temperature  
Mean Temperature 56 °F -  
Max Temperature 73 °F 65 °F 90 °F (1953)
Min Temperature 39 °F 38 °F 20 °F (1993)
Degree Days  
Heating Degree Days 9    
Growing Degree Days 6 (Base 50)    
Moisture  
Dew Point 30 °F    
Average Humidity 42    
Maximum Humidity 81    
Minimum Humidity 16    
Precipitation  
Precipitation 0.00 in - - ()
Sea Level Pressure  
Sea Level Pressure 29.90 in    
Wind  
Wind Speed 8 mph (SSE)    
Max Wind Speed 20 mph    
Max Gust Speed 26 mph    
Visibility 10 miles    
Events      
Averages and records for this station are not official NWS values.
T = Trace of Precipitation, MM = Missing Value Source: NWS Daily Summary

Daily Weather History Graph

Daily Weather History Graph

Search for Another Location

Airport:

Trip Planner

Search our weather history database for the weather conditions in past years. The results will help you decide how hot, cold, wet, or windy it might be!

Date:

Astronomy

Oct. 02, 2012 Rise Set
Actual Time 7:21 AM CDT 6:58 PM CDT
Civil Twilight 6:51 AM CDT 7:28 PM CDT
Nautical Twilight 6:17 AM CDT 8:02 PM CDT
Astronomical Twilight 5:42 AM CDT 8:37 PM CDT
Moon 8:01 PM CDT (10/2) 9:59 AM CDT (10/2)
Length of Visible Light 12h 36m
Length of Day
11h 37m
Waning Gibbous, 94% of the Moon is Illuminated
Oct 2
Waning Gibbous
Oct 8
Last Quarter
Oct 15
New
Oct 21
First Quarter
Oct 29
Full

Hourly Weather History & Observations

Time (CDT) Temp. Windchill Dew Point Humidity Pressure Visibility Wind Dir Wind Speed Gust Speed Precip Events Conditions
12:34 AM 48.2 °F - 32.0 °F 54% 29.99 in 10.0 mi NNW 4.6 mph - N/A   Clear
12:53 AM 48.2 °F - 32.0 °F 54% 29.99 in 10.0 mi North 5.8 mph - N/A   Clear
1:14 AM 48.2 °F - 32.0 °F 54% 29.99 in 10.0 mi North 4.6 mph - N/A   Clear
1:33 AM 48.2 °F - 32.0 °F 54% 29.99 in 10.0 mi North 4.6 mph - N/A   Clear
1:53 AM 48.2 °F - 32.0 °F 54% 29.99 in 10.0 mi North 3.5 mph - N/A   Clear
2:14 AM 48.2 °F - 32.0 °F 54% 29.98 in 10.0 mi North 3.5 mph - N/A   Clear
2:33 AM 44.6 °F - 32.0 °F 61% 29.98 in 10.0 mi Calm Calm - N/A   Clear
2:53 AM 46.4 °F - 32.0 °F 57% 29.97 in 10.0 mi Calm Calm - N/A   Clear
3:14 AM 46.4 °F - 32.0 °F 57% 29.97 in 10.0 mi Calm Calm - N/A   Clear
3:33 AM 46.4 °F 45.2 °F 33.8 °F 62% 29.96 in 10.0 mi ESE 3.5 mph - N/A   Clear
3:53 AM 42.8 °F - 32.0 °F 66% 29.97 in 10.0 mi Calm Calm - N/A   Clear
4:14 AM 42.8 °F 41.1 °F 35.6 °F 76% 29.97 in 10.0 mi ESE 3.5 mph - N/A   Clear
4:33 AM 42.8 °F 41.1 °F 35.6 °F 76% 29.97 in 10.0 mi ESE 3.5 mph - N/A   Clear
4:53 AM 41.0 °F 39.0 °F 33.8 °F 76% 29.97 in 10.0 mi SE 3.5 mph - N/A   Clear
5:14 AM 42.8 °F 39.3 °F 32.0 °F 66% 29.96 in 10.0 mi ESE 5.8 mph - N/A   Clear
5:33 AM 42.8 °F 39.3 °F 32.0 °F 66% 29.96 in 10.0 mi SE 5.8 mph - N/A   Clear
5:53 AM 39.2 °F 35.0 °F 33.8 °F 81% 29.96 in 10.0 mi SE 5.8 mph - N/A   Clear
6:14 AM 41.0 °F 37.1 °F 32.0 °F 70% 29.97 in 10.0 mi SE 5.8 mph - N/A   Clear
6:33 AM 41.0 °F 37.1 °F 32.0 °F 70% 29.97 in 10.0 mi SE 5.8 mph - N/A   Clear
6:53 AM 41.0 °F 38.0 °F 30.2 °F 65% 29.97 in 10.0 mi SE 4.6 mph - N/A   Clear
7:14 AM 39.2 °F 34.2 °F 30.2 °F 70% 29.96 in 10.0 mi SE 6.9 mph - N/A   Clear
7:33 AM 39.2 °F 35.9 °F 30.2 °F 70% 29.97 in 10.0 mi SSE 4.6 mph - N/A   Clear
8:14 AM 42.8 °F 39.3 °F 33.8 °F 70% 29.96 in 10.0 mi SSE 5.8 mph - N/A   Clear
8:33 AM 46.4 °F 42.4 °F 35.6 °F 66% 29.95 in 10.0 mi SSE 8.1 mph - N/A   Clear
8:53 AM 51.8 °F - 35.6 °F 54% 29.94 in 10.0 mi SSE 10.4 mph - N/A   Clear
9:14 AM 55.4 °F - 33.8 °F 44% 29.94 in 10.0 mi South 11.5 mph - N/A   Clear
9:33 AM 57.2 °F - 35.6 °F 44% 29.94 in 10.0 mi South 12.7 mph - N/A   Clear
9:54 AM 59.0 °F - 35.6 °F 42% 29.94 in 10.0 mi SSE 16.1 mph - N/A   Clear
10:13 AM 60.8 °F - 35.6 °F 39% 29.94 in 10.0 mi South 12.7 mph - N/A   Clear
10:33 AM 60.8 °F - 35.6 °F 39% 29.94 in 10.0 mi South 13.8 mph - N/A   Clear
10:54 AM 62.6 °F - 35.6 °F 37% 29.93 in 10.0 mi South 15.0 mph - N/A   Clear
11:13 AM 64.4 °F - 35.6 °F 34% 29.92 in 10.0 mi South 13.8 mph - N/A   Clear
11:33 AM 64.4 °F - 33.8 °F 32% 29.92 in 10.0 mi South 13.8 mph - N/A   Clear
11:54 AM 64.4 °F - 33.8 °F 32% 29.92 in 10.0 mi South 16.1 mph 19.6 mph N/A   Clear
12:13 PM 66.2 °F - 33.8 °F 30% 29.91 in 10.0 mi South 16.1 mph - N/A   Clear
12:33 PM 66.2 °F - 32.0 °F 28% 29.90 in 10.0 mi South 17.3 mph 23.0 mph N/A   Clear
12:54 PM 66.2 °F - 30.2 °F 26% 29.89 in 10.0 mi SSW 17.3 mph 23.0 mph N/A   Clear
1:13 PM 68.0 °F - 30.2 °F 24% 29.88 in 10.0 mi South 13.8 mph 19.6 mph N/A   Clear
1:33 PM 69.8 °F - 30.2 °F 23% 29.86 in 10.0 mi South 16.1 mph 23.0 mph N/A   Clear
1:54 PM 69.8 °F - 28.4 °F 21% 29.85 in 10.0 mi South 17.3 mph 24.2 mph N/A   Clear
2:13 PM 69.8 °F - 28.4 °F 21% 29.85 in 10.0 mi SSW 16.1 mph 24.2 mph N/A   Clear
2:33 PM 71.6 °F - 28.4 °F 20% 29.84 in 10.0 mi South 18.4 mph 21.9 mph N/A   Clear
2:54 PM 71.6 °F - 28.4 °F 20% 29.83 in 10.0 mi South 19.6 mph 25.3 mph N/A   Clear
3:13 PM 71.6 °F - 28.4 °F 20% 29.82 in 10.0 mi South 18.4 mph 24.2 mph N/A   Clear
3:33 PM 71.6 °F - 28.4 °F 20% 29.81 in 10.0 mi South 16.1 mph - N/A   Clear
3:54 PM 71.6 °F - 26.6 °F 19% 29.81 in 10.0 mi South 19.6 mph 26.5 mph N/A   Clear
4:13 PM 73.4 °F - 26.6 °F 18% 29.81 in 10.0 mi South 15.0 mph 23.0 mph N/A   Clear
4:33 PM 69.8 °F - 26.6 °F 20% 29.81 in 10.0 mi South 15.0 mph 23.0 mph N/A   Clear
4:54 PM 69.8 °F - 24.8 °F 18% 29.81 in 10.0 mi South 17.3 mph - N/A   Clear
5:13 PM 69.8 °F - 26.6 °F 20% 29.80 in 10.0 mi South 13.8 mph - N/A   Clear
5:33 PM 71.6 °F - 24.8 °F 17% 29.81 in 10.0 mi South 17.3 mph - N/A   Clear
5:54 PM 71.6 °F - 23.0 °F 16% 29.81 in 10.0 mi South 16.1 mph 21.9 mph N/A   Clear
6:13 PM 69.8 °F - 24.8 °F 18% 29.81 in 10.0 mi South 12.7 mph - N/A   Clear
6:33 PM 66.2 °F - 26.6 °F 23% 29.81 in 10.0 mi South 11.5 mph - N/A   Clear
6:54 PM 62.6 °F - 26.6 °F 26% 29.81 in 10.0 mi South 8.1 mph - N/A   Clear
7:13 PM 60.8 °F - 24.8 °F 25% 29.81 in 10.0 mi South 5.8 mph - N/A   Clear
7:33 PM 57.2 °F - 26.6 °F 31% 29.82 in 10.0 mi South 3.5 mph - N/A   Clear
7:53 PM 57.2 °F - 26.6 °F 31% 29.82 in 10.0 mi South 3.5 mph - N/A   Clear
8:13 PM 57.2 °F - 26.6 °F 31% 29.82 in 10.0 mi South 8.1 mph - N/A   Clear
8:33 PM 55.4 °F - 26.6 °F 33% 29.82 in 10.0 mi South 6.9 mph - N/A   Clear
9:13 PM 53.6 °F - 26.6 °F 35% 29.82 in 10.0 mi South 9.2 mph - N/A   Clear
9:33 PM 53.6 °F - 26.6 °F 35% 29.83 in 10.0 mi South 6.9 mph - N/A   Clear
9:53 PM 53.6 °F - 26.6 °F 35% 29.83 in 10.0 mi South 8.1 mph - N/A   Clear
10:13 PM 51.8 °F - 26.6 °F 38% 29.84 in 10.0 mi South 9.2 mph - N/A   Clear
10:34 PM 51.8 °F - 24.8 °F 35% 29.84 in 10.0 mi South 9.2 mph - N/A   Clear
10:53 PM 50.0 °F - 24.8 °F 37% 29.83 in 10.0 mi South 10.4 mph - N/A   Clear
11:13 PM 50.0 °F - 24.8 °F 37% 29.84 in 10.0 mi South 9.2 mph - N/A   Clear
11:34 PM 48.2 °F - 26.6 °F 43% 29.84 in 10.0 mi South 8.1 mph - N/A   Clear
11:53 PM 50.0 °F - 24.8 °F 37% 29.84 in 10.0 mi South 8.1 mph - N/A   Clear